Location: Walton
(43.6794°N, 81.3017°W)
Time: 02:01:36
(UTC+00:00)

Aureole 1 Rocket - Pass Details

Date: 09 December 2025
Orbit: 373 x 1167 km, 73.9° (Epoch: 24 January)

Event Time Altitude Azimuth Distance (km) Brightness Sun altitude
Exits shadow 10:29:34 38° 317° (NW) 1,678 4.8 -24.0°
Maximum altitude 10:32:23 61° 255° (WSW) 1,303 4.3 -23.5°
Drops below altitude 10° 10:39:41 10° 178° (S) 3,067 6.7 -22.2°
Sets 10:42:24 0° 175° (S) 3,994 7.4 -21.7°
